Location: Recife
(8.0585°S, 34.8848°W)
Time: 12:36:18
(UTC-03:00)

Injun/Solrad 3 - Pass Details

Date: 23 April 2026
Orbit: 868 x 988 km, 66.8° (Epoch: 12 May)

Event Time Altitude Azimuth Distance (km) Brightness Sun altitude
Rises 17:03:21 0° 178° (S) 3,460 10.7 1.7°
Reaches altitude 10° 17:06:22 10° 163° (SSE) 2,516 9.9 1.0°
Maximum altitude 17:10:50 23° 112° (ESE) 1,774 8.9 -0.1°
Drops below altitude 10° 17:15:18 10° 62° (ENE) 2,520 9.7 -1.2°
Sets 17:18:18 0° 47° (NE) 3,466 10.5 -1.9°
